DLH3PM EDFH-EDDC

Flight info

Callsign DLH3PM
Flight time N/A
Altitude 33000
Route ULKIG2L ULKIG Z100 RUDUS L984 KULOK Z715 ABKIS Q240 DRN
Aircraft A320/M-SDE3FGHIRWY/LB1

Departure

Time 2026-04-30 21:18
Airport Frankfurt-Hahn Airport (EDFH)

Arrival

Time N/A
Airport Dresden Airport (EDDC)
Time Latitude Longitude Altitude Speed Heading
2026-04-30 20:34 49.94625 7.26858 1616 ft 0 kts 212°
2026-04-30 21:11 49.94631 7.26864 1616 ft 4 kts 212°
2026-04-30 21:11 49.94649 7.26881 1623 ft 4 kts 185°
2026-04-30 21:11 49.94671 7.26869 1622 ft 4 kts 134°
2026-04-30 21:12 49.94686 7.26838 1624 ft 4 kts 123°
2026-04-30 21:12 49.94701 7.26803 1617 ft 4 kts 123°
2026-04-30 21:12 49.94715 7.26770 1620 ft 4 kts 119°
2026-04-30 21:12 49.94721 7.26735 1623 ft 4 kts 69°
2026-04-30 21:13 49.94706 7.26706 1617 ft 2 kts 32°
2026-04-30 21:13 49.94705 7.26705 1618 ft 0 kts 32°
2026-04-30 21:15 49.94734 7.26733 1621 ft 10 kts 32°
2026-04-30 21:15 49.94790 7.26788 1625 ft 9 kts 32°
2026-04-30 21:15 49.94854 7.26852 1623 ft 14 kts 33°
2026-04-30 21:15 49.94958 7.26957 1622 ft 21 kts 32°
2026-04-30 21:16 49.95098 7.27097 1611 ft 28 kts 33°
2026-04-30 21:16 49.95275 7.27270 1610 ft 32 kts 32°
2026-04-30 21:16 49.95465 7.27455 1612 ft 28 kts 30°
2026-04-30 21:16 49.95568 7.27542 1604 ft 13 kts
2026-04-30 21:17 49.95642 7.27489 1604 ft 12 kts 328°
2026-04-30 21:17 49.95729 7.27392 1598 ft 17 kts 315°
2026-04-30 21:17 49.95747 7.27259 1597 ft 11 kts 232°
2026-04-30 21:17 49.95681 7.27192 1597 ft 14 kts 212°
2026-04-30 21:18 49.95424 7.26937 1604 ft 80 kts 212°
2026-04-30 21:18 49.94784 7.26307 1619 ft 136 kts 212°
2026-04-30 21:18 49.93840 7.25353 1719 ft 182 kts 213°
2026-04-30 21:18 49.92852 7.24191 2447 ft 179 kts 208°
2026-04-30 21:19 49.91749 7.23048 2779 ft 201 kts 203°
2026-04-30 21:19 49.90492 7.21835 3119 ft 225 kts 202°
2026-04-30 21:19 49.89112 7.20454 3638 ft 244 kts 208°
2026-04-30 21:19 49.87752 7.18833 4479 ft 249 kts 209°
2026-04-30 21:20 49.86369 7.17229 4881 ft 255 kts 217°
2026-04-30 21:20 49.85373 7.14889 4993 ft 265 kts 252°
2026-04-30 21:20 49.85414 7.12038 5021 ft 271 kts 289°
2026-04-30 21:20 49.86498 7.09719 5019 ft 268 kts 328°
2026-04-30 21:21 49.88229 7.08844 5340 ft 263 kts
2026-04-30 21:21 49.89916 7.09626 6211 ft 252 kts 39°
2026-04-30 21:21 49.92401 7.13499 7571 ft 266 kts 58°
2026-04-30 21:22 49.93361 7.15937 8300 ft 272 kts 62°
2026-04-30 21:22 49.94260 7.24430 10715 ft 279 kts 103°
2026-04-30 21:23 49.93804 7.27482 11008 ft 302 kts 103°
2026-04-30 21:23 49.93298 7.30776 11244 ft 326 kts 103°
2026-04-30 21:23 49.92211 7.37840 12422 ft 343 kts 103°
2026-04-30 21:24 49.91657 7.41463 13170 ft 347 kts 103°
2026-04-30 21:24 49.91099 7.45125 13907 ft 351 kts 103°
2026-04-30 21:24 49.90534 7.48823 14575 ft 355 kts 103°
2026-04-30 21:24 49.89958 7.52569 15226 ft 358 kts 102°
2026-04-30 21:25 49.88793 7.60145 16547 ft 364 kts 102°
2026-04-30 21:25 49.88209 7.63975 17200 ft 367 kts 101°
2026-04-30 21:25 49.87942 7.67925 17818 ft 369 kts 89°
2026-04-30 21:26 49.89118 7.75649 19009 ft 374 kts 64°
2026-04-30 21:26 49.90521 7.79064 19542 ft 377 kts 53°
2026-04-30 21:27 49.93758 7.85538 20627 ft 382 kts 53°
2026-04-30 21:27 49.95382 7.88820 21163 ft 384 kts 54°
2026-04-30 21:27 49.97014 7.92122 21672 ft 387 kts 54°
2026-04-30 21:28 50.00313 7.98801 22671 ft 392 kts 54°
2026-04-30 21:28 50.01977 8.02180 23164 ft 395 kts 55°
2026-04-30 21:28 50.04362 8.09853 24077 ft 399 kts 75°
2026-04-30 21:29 50.04827 8.14112 24480 ft 402 kts 85°
2026-04-30 21:29 50.05002 8.27266 25679 ft 409 kts 87°
2026-04-30 21:30 50.05109 8.36160 26459 ft 413 kts 87°
2026-04-30 21:31 50.05241 8.49633 27542 ft 421 kts 87°
2026-04-30 21:31 50.05327 8.58788 28220 ft 426 kts 87°
2026-04-30 21:32 50.05427 8.68048 28872 ft 430 kts 87°
2026-04-30 21:32 50.05505 8.72719 29189 ft 433 kts 86°
2026-04-30 21:32 50.05596 8.77403 29501 ft 435 kts 86°
2026-04-30 21:32 50.05690 8.82119 29811 ft 437 kts 86°
2026-04-30 21:33 50.05784 8.86844 30204 ft 437 kts 86°
2026-04-30 21:33 50.05960 8.96296 31013 ft 435 kts 86°
2026-04-30 21:33 50.06038 9.00991 31397 ft 434 kts 86°
2026-04-30 21:34 50.06090 9.04165 31649 ft 434 kts 86°
2026-04-30 21:34 50.06237 9.13526 32389 ft 432 kts 86°
2026-04-30 21:34 50.06304 9.18142 32761 ft 432 kts 86°
2026-04-30 21:35 50.06371 9.22873 33135 ft 431 kts 86°
2026-04-30 21:35 50.06435 9.27478 33342 ft 432 kts 86°
2026-04-30 21:35 50.06555 9.36875 33381 ft 431 kts 86°
2026-04-30 21:36 50.06665 9.46133 33381 ft 431 kts 86°
2026-04-30 21:37 50.06871 9.64774 33399 ft 430 kts 86°
2026-04-30 21:37 50.06956 9.74063 33391 ft 428 kts 86°
2026-04-30 21:38 50.07044 9.83319 33388 ft 428 kts 86°
2026-04-30 21:38 50.07137 9.92582 33402 ft 428 kts 86°
2026-04-30 21:39 50.07216 10.01838 33401 ft 428 kts 86°
2026-04-30 21:39 50.07280 10.11111 33432 ft 428 kts 86°
2026-04-30 21:40 50.07329 10.20322 33434 ft 427 kts 86°
2026-04-30 21:40 50.07362 10.29560 33432 ft 427 kts 86°
2026-04-30 21:41 50.07409 10.38796 33429 ft 426 kts 86°
2026-04-30 21:41 50.07455 10.48021 33428 ft 426 kts 86°
2026-04-30 21:42 50.07497 10.57256 33453 ft 426 kts 85°
2026-04-30 21:42 50.07514 10.66476 33442 ft 426 kts 86°
2026-04-30 21:43 50.07524 10.75708 33437 ft 426 kts 86°
2026-04-30 21:43 50.07532 10.84934 33430 ft 426 kts 86°
2026-04-30 21:44 50.07525 10.94155 33438 ft 426 kts 86°
2026-04-30 21:44 50.07518 11.03371 33464 ft 426 kts 86°
2026-04-30 21:45 50.07502 11.12531 33463 ft 425 kts 86°
2026-04-30 21:45 50.07475 11.21711 33477 ft 424 kts 86°
2026-04-30 21:46 50.07440 11.30884 33473 ft 424 kts 86°
2026-04-30 21:46 50.07403 11.40048 33467 ft 423 kts 86°
2026-04-30 21:47 50.07358 11.49224 33246 ft 423 kts 85°
2026-04-30 21:47 50.07389 11.53781 32961 ft 418 kts 81°
2026-04-30 21:47 50.07812 11.58223 32698 ft 413 kts 73°
2026-04-30 21:48 50.08672 11.62465 32434 ft 410 kts 65°
2026-04-30 21:48 50.09933 11.66435 32174 ft 408 kts 57°
2026-04-30 21:48 50.11563 11.70041 31916 ft 407 kts 49°
2026-04-30 21:48 50.13473 11.73281 31659 ft 407 kts 46°
2026-04-30 21:49 50.15417 11.76508 31406 ft 408 kts 46°
2026-04-30 21:49 50.17350 11.79741 31155 ft 408 kts 46°
2026-04-30 21:49 50.19146 11.83176 30906 ft 410 kts 54°
2026-04-30 21:49 50.20671 11.86943 30662 ft 411 kts 57°
2026-04-30 21:50 50.22157 11.90756 30452 ft 411 kts 57°
2026-04-30 21:50 50.23650 11.94563 30433 ft 411 kts 57°
2026-04-30 21:50 50.26661 12.02190 30436 ft 412 kts 56°
2026-04-30 21:51 50.29835 12.09634 30444 ft 409 kts 53°
2026-04-30 21:51 50.33105 12.16908 30442 ft 408 kts 53°